Weather History for KMCK - January, 2014

Change the Weather History Date:

Thursday, January 30, 2014

  Actual Average Record
Temperature  
Mean Temperature 37 °F 28 °F  
Max Temperature 52 °F 41 °F 70 °F (1971)
Min Temperature 22 °F 15 °F -16 °F (1918)
Degree Days  
Heating Degree Days 28    
Moisture  
Dew Point 21 °F    
Average Humidity 68    
Maximum Humidity 92    
Minimum Humidity 26    
Precipitation  
Precipitation 0.06 in 0.02 in 0.25 in (1985)
Month to date precipitation 0.07 0.49  
Year to date precipitation 0.07 0.49  
Sea Level Pressure  
Sea Level Pressure 29.80 in    
Wind  
Wind Speed 14 mph (NE)    
Max Wind Speed 28 mph    
Max Gust Speed 36 mph    
Visibility 6 miles    
Events Snow    
T = Trace of Precipitation, MM = Missing Value Source: NWS Daily Summary

Daily Weather History Graph

Daily Weather History Graph

Search for Another Location

Airport or City:

Trip Planner

Search our weather history database for the weather conditions in past years. The results will help you decide how hot, cold, wet, or windy it might be!

Date:

Astronomy

Jan. 30, 2014 Rise Set
Actual Time 7:53 AM CST 5:58 PM CST
Civil Twilight 7:24 AM CST 6:27 PM CST
Nautical Twilight 6:51 AM CST 7:00 PM CST
Astronomical Twilight 6:19 AM CST 7:32 PM CST
Moon 7:20 AM CST (1/30) 6:12 PM CST (1/30)
Length of Visible Light 11h 03m
Length of Day
10h 05m
Waning Crescent, 0% of the Moon is Illuminated
Jan 30
Waning Crescent
Jan 30
New
Feb 6
First Quarter
Feb 14
Full
Feb 22
Last Quarter

Hourly Weather History & Observations

Time (CST) Temp. Windchill Dew Point Humidity Pressure Visibility Wind Dir Wind Speed Gust Speed Precip Events Conditions
12:53 AM 44.1 °F 35.7 °F 10.9 °F 26% 29.42 in 10.0 mi SW 20.7 mph - N/A   Mostly Cloudy
1:53 AM 43.0 °F 36.8 °F 12.0 °F 28% 29.40 in 10.0 mi WSW 11.5 mph - N/A   Clear
2:53 AM 42.1 °F 34.9 °F 12.9 °F 31% 29.41 in 10.0 mi WSW 13.8 mph - N/A   Mostly Cloudy
3:53 AM 41.0 °F 35.8 °F 17.1 °F 38% 29.41 in 10.0 mi WSW 8.1 mph - N/A   Scattered Clouds
4:53 AM 51.1 °F - 28.0 °F 41% 29.43 in 10.0 mi WNW 19.6 mph - N/A   Clear
5:53 AM 46.9 °F - 33.1 °F 59% 29.49 in 10.0 mi NNW 25.3 mph 33.4 mph N/A   Clear
6:53 AM 44.1 °F 37.7 °F 30.0 °F 58% 29.57 in 10.0 mi WNW 12.7 mph - N/A   Clear
7:53 AM 41.0 °F 34.7 °F - N/A% 29.62 in 10.0 mi NW 10.4 mph - N/A   Clear
8:53 AM 42.1 °F 34.2 °F - N/A% 29.65 in 10.0 mi NNW 16.1 mph - N/A   Clear
9:53 AM 39.0 °F 27.6 °F 25.0 °F 57% 29.72 in 10.0 mi North 27.6 mph 35.7 mph N/A   Scattered Clouds
10:53 AM 36.0 °F 25.0 °F 21.9 °F 57% 29.77 in 10.0 mi North 20.7 mph - N/A   Clear
11:53 AM 37.9 °F 29.6 °F 21.0 °F 51% 29.82 in 10.0 mi NNE 13.8 mph - N/A   Clear
12:53 PM 37.9 °F 28.9 °F 19.9 °F 48% 29.82 in 10.0 mi NE 16.1 mph - N/A   Clear
1:53 PM 36.0 °F 26.7 °F 19.0 °F 50% 29.83 in 10.0 mi NE 15.0 mph - N/A   Clear
2:53 PM 35.1 °F 26.4 °F 18.0 °F 50% 29.83 in 10.0 mi NNE 12.7 mph 20.7 mph N/A   Clear
3:53 PM 33.1 °F 24.4 °F 17.1 °F 52% 29.87 in 10.0 mi NE 11.5 mph - N/A   Overcast
4:53 PM 30.9 °F 22.2 °F 16.0 °F 54% 29.89 in 10.0 mi NE 10.4 mph - N/A   Overcast
5:53 PM 30.0 °F 21.7 °F 16.0 °F 56% 29.92 in 10.0 mi NE 9.2 mph - N/A   Overcast
6:53 PM 28.0 °F 18.1 °F 18.0 °F 66% 29.96 in 7.0 mi NE 11.5 mph - N/A   Overcast
7:16 PM 27.0 °F 17.3 °F 19.9 °F 75% 29.92 in 3.0 mi ENE 10.4 mph - 0.00 in Snow Light Snow
7:26 PM 26.1 °F 16.8 °F 21.0 °F 81% 29.93 in 1.8 mi ENE 9.2 mph - 0.00 in Snow Light Snow
7:49 PM 24.8 °F 16.9 °F 21.2 °F 86% 29.94 in 0.8 mi East 6.9 mph - 0.00 in Snow Light Snow
7:53 PM 25.0 °F 16.3 °F 23.0 °F 92% 29.99 in 0.8 mi East 8.1 mph - 0.00 in Snow Light Snow
8:43 PM 25.0 °F 18.1 °F 23.0 °F 92% 29.94 in 1.0 mi ENE 5.8 mph - 0.02 in Snow Light Snow
8:53 PM 25.0 °F 17.1 °F 23.0 °F 92% 30.00 in 0.8 mi ENE 6.9 mph - 0.03 in Snow Light Snow
9:24 PM 24.1 °F 13.7 °F 21.9 °F 91% 29.93 in 1.0 mi ENE 10.4 mph - 0.02 in Snow Light Snow
9:53 PM 24.1 °F 13.7 °F 21.9 °F 91% 29.99 in 1.0 mi ENE 10.4 mph - 0.03 in Snow Light Snow
10:11 PM 24.1 °F 12.5 °F 21.9 °F 91% 29.93 in 1.2 mi ENE 12.7 mph - 0.00 in Snow Light Snow
10:36 PM 24.1 °F 12.5 °F 21.0 °F 88% 29.93 in 2.0 mi ENE 12.7 mph - 0.00 in Snow Light Snow
10:50 PM 24.8 °F 14.6 °F 21.2 °F 86% 29.93 in 3.0 mi ENE 10.4 mph - 0.00 in Snow Light Snow
10:53 PM 24.1 °F 12.5 °F 21.0 °F 88% 30.01 in 3.0 mi ENE 12.7 mph - 0.00 in Snow Light Snow
11:32 PM 23.0 °F 11.1 °F 21.0 °F 92% 29.92 in 2.5 mi ENE 12.7 mph - 0.00 in Snow Light Snow
11:41 PM 23.0 °F 11.7 °F 21.0 °F 92% 29.92 in 3.0 mi ENE 11.5 mph - 0.00 in Snow Light Snow
11:49 PM 23.0 °F 11.1 °F 19.4 °F 86% 29.92 in 3.0 mi ENE 12.7 mph - 0.00 in Snow Light Snow
11:53 PM 23.0 °F 11.7 °F 19.9 °F 88% 29.99 in 2.5 mi ENE 11.5 mph - 0.00 in Snow Light Snow